• In Italy
  • List of Countries
  • For 7 days
  • Water Temperature
  • Satellite Maps
  • Weather Map
  • Weather Widgets
  • user-avatar
    Login

    Hourly Weather A'ali

    Today, 21 June, Thursday

    Time Temperature Precipitation Wind Pressure Humidity
    00:00 +40°C° 0 mm 8 mps 750 mmHg 39%
    01:00 +39°C° 0 mm 8 mps 750 mmHg 39%
    02:00 +39°C° 0 mm 9 mps 750 mmHg 39%
    03:00 +38°C° 0 mm 8 mps 750 mmHg 44%
    04:00 +38°C° 0 mm 8 mps 750 mmHg 43%
    05:00 +38°C° 0 mm 8 mps 750 mmHg 43%
    06:00 +38°C° 0 mm 8 mps 750 mmHg 43%
    07:00 +39°C° 0 mm 8 mps 750 mmHg 36%
    08:00 +42°C° 0 mm 9 mps 751 mmHg 30%
    09:00 +44°C° 0 mm 10 mps 751 mmHg 23%
    10:00 +44°C° 0 mm 10 mps 751 mmHg 21%
    11:00 +45°C° 0 mm 10 mps 751 mmHg 20%
    12:00 +46°C° 0 mm 11 mps 751 mmHg 18%
    13:00 +45°C° 0 mm 10 mps 750 mmHg 18%
    14:00 +45°C° 0 mm 10 mps 750 mmHg 18%
    15:00 +45°C° 0 mm 10 mps 750 mmHg 17%
    16:00 +44°C° 0 mm 9 mps 750 mmHg 18%
    17:00 +44°C° 0 mm 9 mps 749 mmHg 19%
    18:00 +43°C° 0 mm 8 mps 749 mmHg 20%
    19:00 +43°C° 0 mm 7 mps 749 mmHg 23%
    20:00 +41°C° 0 mm 7 mps 750 mmHg 25%
    21:00 +40°C° 0 mm 6 mps 750 mmHg 27%
    22:00 +40°C° 0 mm 6 mps 750 mmHg 28%
    23:00 +40°C° 0 mm 7 mps 750 mmHg 29%

    Tomorrow, 22 June, Friday

    Time Temperature Precipitation Wind Pressure Humidity
    00:00 +40°C° 0 mm 7 mps 749 mmHg 30%
    01:00 +39°C° 0 mm 8 mps 749 mmHg 31%
    02:00 +39°C° 0 mm 8 mps 749 mmHg 32%
    03:00 +39°C° 0 mm 9 mps 749 mmHg 34%
    04:00 +38°C° 0 mm 9 mps 750 mmHg 35%
    05:00 +38°C° 0 mm 9 mps 750 mmHg 37%
    06:00 +38°C° 0 mm 8 mps 750 mmHg 39%
    07:00 +39°C° 0 mm 9 mps 750 mmHg 34%
    08:00 +40°C° 0 mm 9 mps 750 mmHg 29%
    09:00 +43°C° 0 mm 10 mps 751 mmHg 24%
    10:00 +43°C° 0 mm 10 mps 750 mmHg 22%
    11:00 +44°C° 0 mm 10 mps 750 mmHg 20%
    12:00 +44°C° 0 mm 10 mps 750 mmHg 18%
    13:00 +44°C° 0 mm 10 mps 750 mmHg 19%
    14:00 +44°C° 0 mm 9 mps 749 mmHg 20%
    15:00 +44°C° 0 mm 9 mps 749 mmHg 21%
    16:00 +43°C° 0 mm 9 mps 749 mmHg 22%
    17:00 +41°C° 0 mm 8 mps 749 mmHg 24%
    18:00 +41°C° 0 mm 7 mps 748 mmHg 25%
    19:00 +40°C° 0 mm 6 mps 749 mmHg 26%
    20:00 +39°C° 0 mm 5 mps 749 mmHg 28%
    21:00 +38°C° 0 mm 4 mps 749 mmHg 29%
    22:00 +38°C° 0 mm 4 mps 749 mmHg 28%
    23:00 +37°C° 0 mm 4 mps 749 mmHg 27%

    Day after tomorrow, 23 June, Saturday

    Time Temperature Precipitation Wind Pressure Humidity
    00:00 +37°C° 0 mm 4 mps 749 mmHg 27%
    01:00 +37°C° 0 mm 5 mps 749 mmHg 27%
    02:00 +38°C° 0 mm 6 mps 749 mmHg 27%
    03:00 +38°C° 0 mm 6 mps 749 mmHg 27%
    04:00 +38°C° 0 mm 7 mps 749 mmHg 30%
    05:00 +38°C° 0 mm 8 mps 749 mmHg 33%
    06:00 +38°C° 0 mm 8 mps 749 mmHg 36%
    07:00 +39°C° 0 mm 9 mps 749 mmHg 33%
    08:00 +42°C° 0 mm 9 mps 750 mmHg 29%
    09:00 +43°C° 0 mm 9 mps 750 mmHg 26%
    10:00 +44°C° 0 mm 9 mps 750 mmHg 24%
    11:00 +44°C° 0 mm 10 mps 750 mmHg 21%
    12:00 +45°C° 0 mm 10 mps 750 mmHg 19%
    13:00 +44°C° 0 mm 10 mps 749 mmHg 19%
    14:00 +44°C° 0 mm 10 mps 749 mmHg 20%
    15:00 +44°C° 0 mm 10 mps 748 mmHg 20%
    16:00 +43°C° 0 mm 9 mps 748 mmHg 22%
    17:00 +41°C° 0 mm 8 mps 748 mmHg 23%
    18:00 +41°C° 0 mm 8 mps 748 mmHg 25%
    19:00 +40°C° 0 mm 7 mps 748 mmHg 27%
    20:00 +39°C° 0 mm 6 mps 749 mmHg 29%
    21:00 +38°C° 0 mm 4 mps 749 mmHg 31%
    22:00 +37°C° 0 mm 4 mps 749 mmHg 30%
    23:00 +37°C° 0 mm 4 mps 749 mmHg 29%

    24 June, Sunday

    Time Temperature Precipitation Wind Pressure Humidity
    00:00 +37°C° 0 mm 4 mps 748 mmHg 28%
    01:00 +37°C° 0 mm 5 mps 748 mmHg 29%
    02:00 +37°C° 0 mm 5 mps 748 mmHg 29%
    03:00 +36°C° 0 mm 6 mps 748 mmHg 30%
    04:00 +36°C° 0 mm 6 mps 748 mmHg 32%
    05:00 +36°C° 0 mm 7 mps 749 mmHg 34%
    06:00 +36°C° 0 mm 7 mps 749 mmHg 36%
    07:00 +39°C° 0 mm 7 mps 749 mmHg 32%
    08:00 +41°C° 0 mm 8 mps 750 mmHg 29%
    09:00 +43°C° 0 mm 8 mps 750 mmHg 25%
    10:00 +44°C° 0 mm 8 mps 750 mmHg 22%
    11:00 +45°C° 0 mm 8 mps 750 mmHg 20%
    12:00 +46°C° 0 mm 8 mps 749 mmHg 17%
    13:00 +45°C° 0 mm 8 mps 749 mmHg 18%
    14:00 +45°C° 0 mm 8 mps 749 mmHg 18%
    15:00 +45°C° 0 mm 8 mps 748 mmHg 19%
    16:00 +44°C° 0 mm 8 mps 748 mmHg 21%
    17:00 +43°C° 0 mm 7 mps 748 mmHg 22%
    18:00 +41°C° 0 mm 7 mps 748 mmHg 24%
    19:00 +40°C° 0 mm 6 mps 749 mmHg 26%
    20:00 +40°C° 0 mm 5 mps 749 mmHg 28%
    21:00 +38°C° 0 mm 4 mps 749 mmHg 30%
    22:00 +38°C° 0 mm 4 mps 749 mmHg 29%
    23:00 +37°C° 0 mm 4 mps 749 mmHg 27%

    25 June, Monday

    Time Temperature Precipitation Wind Pressure Humidity
    00:00 +37°C° 0 mm 4 mps 749 mmHg 26%
    01:00 +37°C° 0 mm 4 mps 748 mmHg 26%
    02:00 +37°C° 0 mm 4 mps 748 mmHg 25%
    03:00 +37°C° 0 mm 5 mps 748 mmHg 25%
    04:00 +37°C° 0 mm 5 mps 748 mmHg 25%
    05:00 +37°C° 0 mm 5 mps 748 mmHg 25%
    06:00 +38°C° 0 mm 6 mps 749 mmHg 25%
    07:00 +40°C° 0 mm 6 mps 749 mmHg 24%
    08:00 +41°C° 0 mm 7 mps 749 mmHg 22%
    09:00 +44°C° 0 mm 7 mps 749 mmHg 21%
    10:00 +45°C° 0 mm 7 mps 749 mmHg 21%
    11:00 +46°C° 0 mm 7 mps 748 mmHg 21%
    12:00 +47°C° 0 mm 7 mps 748 mmHg 21%
    13:00 +46°C° 0 mm 7 mps 748 mmHg 21%
    14:00 +46°C° 0 mm 7 mps 747 mmHg 22%
    15:00 +46°C° 0 mm 7 mps 747 mmHg 22%
    16:00 +45°C° 0 mm 7 mps 747 mmHg 24%
    17:00 +44°C° 0 mm 7 mps 747 mmHg 26%
    18:00 +42°C° 0 mm 6 mps 747 mmHg 28%
    19:00 +41°C° 0 mm 6 mps 747 mmHg 29%
    20:00 +41°C° 0 mm 5 mps 747 mmHg 31%
    21:00 +40°C° 0 mm 4 mps 747 mmHg 33%
    22:00 +40°C° 0 mm 4 mps 747 mmHg 31%
    23:00 +40°C° 0 mm 5 mps 747 mmHg 30%

    26 June, Tuesday

    Time Temperature Precipitation Wind Pressure Humidity
    00:00 +39°C° 0 mm 5 mps 746 mmHg 28%
    01:00 +39°C° 0 mm 5 mps 746 mmHg 28%
    02:00 +39°C° 0 mm 5 mps 746 mmHg 27%
    03:00 +39°C° 0 mm 5 mps 746 mmHg 27%
    04:00 +39°C° 0 mm 6 mps 746 mmHg 26%
    05:00 +39°C° 0 mm 6 mps 746 mmHg 26%
    06:00 +39°C° 0 mm 7 mps 747 mmHg 25%
    07:00 +41°C° 0 mm 7 mps 747 mmHg 25%
    08:00 +43°C° 0 mm 8 mps 747 mmHg 25%
    09:00 +44°C° 0 mm 9 mps 747 mmHg 25%
    10:00 +45°C° 0 mm 9 mps 747 mmHg 24%
    11:00 +47°C° 0 mm 9 mps 746 mmHg 22%
    12:00 +48°C° 0 mm 9 mps 746 mmHg 21%
    13:00 +48°C° 0 mm 9 mps 746 mmHg 21%
    14:00 +48°C° 0 mm 9 mps 746 mmHg 21%
    15:00 +46°C° 0 mm 8 mps 745 mmHg 22%
    16:00 +46°C° 0 mm 8 mps 745 mmHg 23%
    17:00 +45°C° 0 mm 7 mps 745 mmHg 25%
    18:00 +44°C° 0 mm 6 mps 746 mmHg 27%
    19:00 +42°C° 0 mm 5 mps 746 mmHg 28%
    20:00 +41°C° 0 mm 4 mps 746 mmHg 29%
    21:00 +40°C° 0 mm 3 mps 746 mmHg 31%
    22:00 +39°C° 0 mm 3 mps 746 mmHg 33%
    23:00 +38°C° 0 mm 2 mps 746 mmHg 35%
    Show more